Regional Weather Roundup
Issued by NWS

Home | Current Version | Previous Version | Graphics & Text | Print | Product List | Glossary On
Versions: 1 2 3 4 5 6 7 8 9 10 11 12 13 14 15 16 17 18 19 20 21 22 23 24 25 26 27 28 29 30 31 32 33 34 35 36 37 38 39 40 41 42 43 44 45 46 47 48 49 50
000
ASUS43 KTOP 021559
RWRKS

WEATHER ROUNDUP FOR KANSAS
NATIONAL WEATHER SERVICE GOODLAND KS
1100 AM CDT WED SEP 02 2015

NOTE:  "FAIR" INDICATES FEW OR NO CLOUDS BELOW 12,000 FEET WITH NO
SIGNIFICANT WEATHER AND/OR OBSTRUCTIONS TO VISIBILITY.

KSZ001>006-013>018-027>032-041>047-021700-
NORTHWEST KANSAS

CITY           SKY/WX    TMP DP  RH WIND       PRES   REMARKS
GOODLAND       SUNNY     84  51  31 NW10      29.99S
HAYS           SUNNY     88  59  37 SW14      29.93S
HILL CITY      SUNNY     86  59  39 S10       29.91F
RUSSELL        SUNNY     89  59  36 SW20      29.91F
$$

KSZ061>065-074>080-084>089-021700-
SOUTHWEST KANSAS

CITY           SKY/WX    TMP DP  RH WIND       PRES   REMARKS
DODGE CITY     SUNNY     84  56  38 S18G26    29.96F
ELKHART          N/A     85  58  40 W8          N/A
GARDEN CITY    SUNNY     83  58  42 SW13      29.95S
GREAT BEND     SUNNY     88  61  40 S20G28    29.93F
LIBERAL        SUNNY     86  57  37 SW18G26   30.00S
$$

KSZ066>073-081>083-090>101-021700-
SOUTHEAST KANSAS

CITY           SKY/WX    TMP DP  RH WIND       PRES   REMARKS
CHANUTE        SUNNY     82  69  64 S14       30.07R
COFFEYVILLE    SUNNY     81  70  69 S12       30.06S
HUTCHINSON     SUNNY     86  65  49 S22G28    29.98F
NEWTON         MOSUNNY   84  64  51 S16       30.02S
PARSONS        SUNNY     81  71  71 S8        30.08S
WICHITA INTL   MOSUNNY   86  67  52 S16G24    29.99F
WICHITA JABRA  SUNNY     83  67  58 S18G24    30.00F
WINFIELD       SUNNY     87  67  51 SW17      30.04S
$$

KSZ007>012-019>026-033>040-048>060-102>105-021700-
NORTHEAST KANSAS

CITY           SKY/WX    TMP DP  RH WIND       PRES   REMARKS
CONCORDIA      SUNNY     85  64  49 S15G23    29.92S
EMPORIA        MOSUNNY   79  68  69 SE10      30.03S
LAWRENCE       LGT RAIN  71  69  93 E8        30.05S
MANHATTAN      PTSUNNY   83  67  58 S12G22    29.97R
OLATHE IND     LGT RAIN  74  69  85 SE7       30.08F
OLATHE EXE     CLOUDY    74  69  85 SE5       30.08S
SALINA         SUNNY     89  64  43 S24G32    29.93F
TOPEKA BILLARD CLOUDY    74  70  87 SE9       30.02R
TOPEKA FORBES  PTSUNNY   74  69  85 S13       30.02F
$$


USA.gov is the U.S. government's official web portal to all federal, state and local government web resources and services.